Wind_Speed
12 10 16 17 11 6 7 4 4 5 6 4 9 13 18 15 14 16 18 21 21 22 16 12 8 3 3 7 5 9 11 15 16 12 9 8 9 8 5 3 3 8 7 8
7 18 13 11 10 8 6 4 5 6 4 4 10 14 16 11 9 17 21 23 24 21 20 15 11 6 2 5 4 7 10 13 14 11 12 12 11 9 8 7 4 9 10 9
19 10 13 11 10 9 6 6 4 8 1 5 6 8 7 6 6 8 14 21 23 25 22 18 14 8 3 2 2 7 10 11 12 10 8 14 13 11 13 17 12 15 11 4
13 10 14 12 13 12 10 11 6 5 4 8 2 6 6 8 12 9 13 19 23 26 23 18 15 10 6 1 2 6 9 9 11 14 12 13 14 15 12 16 19 20 20 18
15 15 15 12 12 12 9 6 5 3 6 2 4 4 4 4 9 14 13 18 22 27 28 22 17 11 8 5 3 4 7 8 9 11 13 14 15 14 12 13 13 15 16 17
18 6 11 14 7 12 5 4 3 2 2 4 6 6 3 5 7 6 5 8 20 26 26 22 16 14 10 8 4 4 6 6 7 9 12 13 14 15 12 9 6 9 11 15
10 14 6 8 9 4 8 7 5 4 4 6 2 4 8 12 12 9 14 8 16 25 27 25 22 18 13 10 6 4 4 4 6 7 10 11 15 16 13 13 3 5 7 15
16 13 16 9 18 13 13 13 8 5 4 7 3 5 5 4 3 6 8 5 15 25 27 25 22 18 15 11 9 5 3 3 4 6 9 10 11 14 15 15 13 15 15 12
18 18 7 14 9 17 7 7 6 9 1 4 3 5 10 2 6 2 3 7 16 25 29 27 22 19 17 13 10 6 2 3 2 5 7 7 7 11 13 16 14 17 14 9
7 9 13 11 11 7 13 12 5 2 5 7 4 3 7 8 8 2 4 9 16 22 25 25 23 21 18 15 11 7 4 1 2 2 5 6 5 8 9 12 15 13 11 12
13 9 4 10 16 19 7 9 3 3 3 8 8 5 5 5 4 5 6 12 19 25 26 25 23 21 19 17 13 8 5 2 2 3 4 5 5 5 7 9 9 10 12 13
19 11 15 10 3 15 22 18 15 10 10 4 5 10 5 8 5 6 2 9 16 26 27 23 23 22 22 18 15 11 7 5 3 4 5 5 5 5 6 8 10 11 12 13
13 10 12 12 5 3 13 12 13 7 4 13 12 7 5 6 5 4 9 14 18 26 27 25 24 25 24 20 17 14 10 9 5 5 5 5 6 6 7 6 8 11 13 14
24 10 24 20 12 14 10 12 15 16 10 11 12 14 6 10 7 7 12 13 17 26 30 28 26 26 25 22 19 17 12 12 9 7 6 5 7 7 9 8 8 9 9 9
15 18 17 22 17 17 19 19 18 17 16 14 13 11 14 14 11 10 10 13 17 22 28 32 30 28 27 24 22 19 15 15 12 9 7 6 7 10 10 11 9 9 9 10
1 7 14 19 15 21 23 22 19 21 20 19 18 17 12 10 12 11 13 16 17 22 30 32 32 31 30 28 25 23 19 17 14 12 9 6 6 12 14 12 11 11 10 11
5 8 7 14 11 17 20 26 23 21 17 17 17 18 9 9 13 16 16 20 21 22 27 34 38 34 31 30 27 26 22 19 16 14 12 9 7 11 16 16 14 13 12 11
4 5 3 6 10 13 3 12 24 21 19 20 17 17 14 20 22 14 16 19 18 20 22 29 36 37 31 29 29 25 24 22 18 17 16 13 9 12 16 18 17 15 13 12
2 2 4 5 10 6 6 4 12 15 19 18 21 21 18 11 8 14 19 19 13 13 14 20 25 37 34 30 29 28 27 25 22 20 19 16 12 13 15 17 19 18 16 15
8 1 4 3 8 15 9 8 11 14 11 18 23 20 16 16 9 13 21 23 19 11 12 20 21 30 37 33 30 31 30 29 26 23 20 18 15 13 14 15 17 18 17 15
6 5 11 9 6 5 6 9 19 14 6 13 26 27 20 15 20 16 13 22 15 10 10 19 24 23 31 38 35 35 34 33 29 24 22 20 18 15 14 15 16 17 18 18
11 9 7 7 8 15 6 13 14 7 7 11 20 22 27 35 20 19 15 16 13 9 10 21 26 26 25 36 40 38 38 33 31 29 26 23 21 19 19 18 19 20 19 19
11 11 13 8 8 2 23 17 27 16 11 13 17 20 24 23 21 21 20 19 16 11 10 18 27 27 27 31 42 43 38 36 35 33 30 26 23 23 22 23 23 23 22 21
19 7 10 11 17 11 16 20 15 24 15 14 16 13 17 20 17 19 18 16 18 15 14 20 27 27 25 30 37 45 41 39 37 37 34 30 28 26 25 25 26 26 25 25
14 12 15 12 9 5 11 20 14 18 15 13 11 15 14 13 14 12 12 14 12 15 14 18 24 25 27 27 35 42 45 41 39 38 38 35 32 30 29 29 29 29 27 26
5 15 10 13 9 7 10 29 29 22 27 21 19 17 13 11 11 10 11 11 13 17 16 16 17 22 25 29 32 37 43 46 43 41 41 40 39 36 33 31 30 29 27 25
Wind_Direction
179 191 207 203 207 214 225 195 227 242 256 257 262 273 276 278 236 222 210 205 206 213 211 206 205 213 323 352 349 2 12 13 13 13 10 10 357 8 18 342 335 271 214 191
158 214 201 180 194 186 181 190 238 270 271 222 280 274 277 268 252 229 217 208 207 205 207 204 202 200 237 352 0 15 22 18 17 17 15 15 19 44 52 30 5 42 166 182
201 196 160 172 173 183 188 210 219 286 312 239 279 274 282 292 263 249 231 223 211 205 202 201 197 193 196 4 32 46 32 25 26 20 27 34 39 55 70 59 66 88 90 147
207 158 167 179 194 197 219 218 239 247 267 292 228 296 292 294 291 262 238 214 207 202 204 201 192 188 181 145 97 59 43 37 40 40 38 48 47 66 76 64 60 67 73 80
192 171 180 187 203 184 241 165 205 230 252 295 212 243 271 290 278 271 252 217 206 202 199 195 191 173 173 160 124 81 54 43 41 39 39 42 45 63 62 65 61 61 66 67
212 177 190 205 189 191 161 133 93 95 176 249 243 227 266 247 249 269 261 211 202 194 193 193 180 171 174 171 144 110 67 49 49 43 42 36 48 57 56 43 39 63 49 62
185 200 188 193 206 136 176 190 238 236 219 268 103 200 263 269 267 277 295 272 200 190 185 186 181 177 177 173 170 130 75 58 57 51 44 42 49 51 61 42 81 121 80 91
197 209 197 181 213 203 196 206 232 238 241 292 137 233 261 275 335 304 311 251 182 183 185 187 184 178 176 171 177 171 80 66 74 64 46 47 55 52 56 42 102 109 130 108
197 216 175 183 189 197 176 200 231 247 52 260 253 248 279 270 253 292 94 162 173 182 186 188 183 180 176 172 169 177 140 30 87 62 55 49 60 60 50 43 113 110 113 128
170 198 207 187 197 197 204 161 176 192 227 252 215 263 266 294 314 249 201 189 177 182 189 188 184 183 180 174 178 186 184 307 161 78 68 63 73 71 66 71 79 101 91 112
176 190 150 177 199 205 179 202 188 231 233 256 272 263 231 227 290 309 231 201 179 182 191 191 187 186 185 183 188 189 185 202 188 150 107 85 86 96 81 89 78 68 74 81
190 199 208 195 178 227 206 207 206 225 211 231 272 266 194 215 256 292 198 194 193 183 190 193 190 188 191 192 195 196 192 177 174 161 145 127 111 109 107 97 89 91 93 90
168 202 200 219 202 168 212 199 207 220 229 224 242 252 167 238 258 200 165 173 189 181 190 195 193 194 194 195 199 191 186 180 168 153 143 144 141 128 142 115 104 106 100 95
176 189 208 212 230 197 201 190 203 201 219 230 237 253 217 222 223 199 168 172 184 183 191 196 198 198 196 194 194 188 183 184 176 162 143 140 153 155 157 143 124 122 112 113
185 217 218 224 204 194 212 213 206 212 224 227 232 224 237 221 208 209 162 162 180 180 192 199 201 201 199 195 195 193 188 187 183 174 162 152 159 170 164 167 151 141 134 127
161 203 204 217 208 215 224 222 212 217 219 230 244 248 239 224 192 192 167 170 194 186 194 199 203 204 203 200 195 193 190 186 186 185 176 176 166 173 174 171 166 160 148 141
139 152 163 215 203 219 242 229 220 219 212 218 227 240 198 196 201 204 183 186 196 198 196 199 205 206 205 204 199 195 192 188 188 189 186 184 181 175 179 179 176 170 169 160
126 136 171 184 140 219 246 205 215 217 214 217 227 241 206 220 220 205 204 195 205 205 202 207 206 207 206 204 202 198 196 194 191 192 192 189 187 180 181 185 184 182 179 180
192 121 147 188 210 257 200 181 180 198 225 215 218 231 229 206 182 231 221 213 202 200 193 206 215 212 205 203 202 200 198 200 197 195 194 193 188 185 182 184 187 189 190 190
155 218 206 152 219 233 207 185 207 189 229 208 212 221 204 172 214 239 216 210 209 208 201 192 205 212 210 206 200 200 201 201 202 198 195 193 189 187 182 181 185 186 187 189
173 179 209 210 247 269 243 173 158 197 197 203 203 214 191 194 222 236 215 207 211 233 223 199 201 200 207 206 201 202 202 205 201 198 196 195 192 186 182 179 175 174 175 175
198 182 205 202 224 245 163 156 188 196 204 205 202 193 196 214 228 220 217 208 220 216 224 206 202 203 207 208 205 204 206 203 201 199 197 197 193 189 187 184 179 177 178 177
232 219 222 211 229 88 180 179 207 213 208 200 200 202 209 223 230 238 229 232 220 228 246 219 203 203 209 208 206 208 212 203 202 203 200 197 195 194 193 190 187 186 186 186
233 237 239 222 237 229 207 223 228 218 215 228 219 207 208 220 236 239 238 227 228 230 248 221 202 207 210 205 205 210 210 205 203 204 204 200 200 199 199 199 198 198 196 193
221 207 227 241 248 244 234 223 233 216 209 210 211 205 202 203 218 237 235 231 231 205 208 218 207 206 212 210 205 207 210 208 206 205 206 204 204 205 205 206 206 206 206 205
224 218 222 232 219 228 220 214 222 213 209 207 191 183 189 208 209 205 217 228 220 217 217 219 229 227 225 221 213 210 209 207 208 207 207 207 207 206 211 211 213 214 216 215
Height
1487 1490 1488 1491 1498 1496 1501 1505 1509 1508 1504 1505 1503 1501 1495 1495 1494 1494 1497 1498 1501 1503 1508 1510 1512 1513 1512 1511 1509 1508 1505 1501 1497 1494 1491 1489 1486 1484 1482 1479 1476 1474 1474 1475
1484 1481 1482 1488 1494 1498 1501 1504 1507 1503 1503 1505 1500 1498 1490 1489 1486 1487 1489 1492 1495 1500 1503 1506 1509 1511 1511 1509 1508 1507 1505 1501 1499 1495 1492 1488 1486 1484 1482 1479 1476 1471 1472 1475
1468 1470 1480 1485 1492 1497 1499 1501 1502 1503 1504 1502 1502 1496 1488 1481 1482 1482 1484 1486 1490 1493 1497 1503 1506 1508 1509 1508 1508 1507 1505 1502 1500 1496 1494 1490 1488 1486 1484 1482 1478 1474 1476 1475
1466 1473 1477 1482 1486 1488 1497 1492 1494 1500 1505 1506 1500 1505 1489 1479 1479 1478 1478 1480 1484 1489 1495 1500 1503 1506 1507 1507 1507 1506 1505 1503 1501 1499 1495 1493 1491 1489 1487 1485 1484 1482 1480 1480
1460 1468 1473 1480 1480 1483 1487 1488 1492 1496 1500 1503 1501 1507 1484 1484 1476 1469 1468 1473 1478 1483 1489 1495 1500 1503 1505 1506 1506 1506 1505 1504 1502 1501 1498 1496 1494 1491 1490 1488 1488 1488 1486 1485
1452 1461 1464 1468 1473 1476 1480 1489 1497 1501 1502 1506 1491 1495 1485 1476 1470 1465 1465 1469 1473 1478 1486 1492 1497 1500 1503 1504 1505 1506 1505 1505 1504 1503 1501 1499 1498 1496 1493 1491 1491 1491 1490 1489
1455 1457 1460 1463 1471 1479 1481 1488 1499 1504 1503 1500 1497 1498 1479 1464 1463 1467 1466 1467 1469 1475 1483 1488 1492 1497 1501 1502 1504 1505 1505 1505 1505 1504 1503 1502 1500 1498 1496 1494 1493 1493 1494 1494
1456 1467 1456 1458 1462 1471 1477 1478 1491 1509 1502 1490 1498 1491 1473 1463 1466 1465 1464 1462 1467 1473 1481 1485 1490 1495 1498 1501 1503 1504 1505 1506 1505 1505 1505 1504 1504 1502 1500 1497 1496 1497 1497 1499
1446 1449 1447 1450 1455 1462 1477 1480 1473 1482 1496 1494 1482 1477 1465 1463 1461 1463 1463 1464 1466 1472 1476 1482 1488 1493 1496 1500 1502 1503 1505 1506 1506 1506 1507 1506 1506 1505 1504 1501 1501 1501 1503 1504
1435 1451 1442 1446 1452 1458 1461 1466 1481 1484 1497 1499 1482 1484 1471 1460 1458 1459 1464 1463 1466 1471 1477 1481 1486 1490 1495 1498 1501 1503 1504 1506 1506 1506 1507 1508 1507 1507 1507 1507 1507 1508 1507 1507
1425 1431 1450 1447 1447 1450 1463 1464 1470 1470 1475 1482 1488 1476 1458 1458 1457 1456 1458 1461 1462 1468 1475 1480 1484 1489 1494 1497 1499 1502 1504 1506 1506 1506 1507 1509 1509 1509 1510 1511 1511 1510 1510 1510
1417 1427 1439 1443 1442 1440 1442 1450 1455 1464 1475 1472 1473 1469 1454 1455 1454 1454 1456 1459 1463 1465 1472 1478 1482 1487 1491 1495 1498 1500 1503 1505 1506 1506 1507 1509 1510 1511 1512 1513 1514 1514 1514 1514
1415 1421 1439 1444 1448 1445 1443 1445 1445 1452 1458 1463 1469 1463 1453 1454 1453 1452 1453 1454 1460 1461 1468 1474 1479 1484 1488 1492 1496 1499 1501 1504 1505 1507 1508 1509 1510 1512 1513 1514 1516 1518 1519 1519
1403 1412 1411 1421 1424 1432 1441 1443 1443 1445 1453 1454 1455 1451 1451 1450 1450 1450 1449 1452 1456 1457 1463 1470 1476 1480 1485 1489 1493 1497 1499 1502 1504 1507 1508 1509 1510 1512 1514 1516 1518 1520 1521 1522
1401 1407 1409 1407 1414 1422 1424 1430 1435 1442 1440 1448 1444 1448 1441 1441 1444 1445 1445 1448 1453 1455 1460 1464 1470 1476 1481 1485 1489 1494 1497 1500 1503 1505 1508 1509 1510 1512 1514 1516 1519 1521 1523 1525
1402 1404 1408 1411 1413 1414 1419 1420 1424 1428 1429 1434 1433 1435 1432 1436 1440 1442 1441 1445 1451 1449 1452 1458 1465 1470 1476 1481 1485 1490 1494 1497 1500 1503 1506 1508 1509 1511 1513 1516 1518 1521 1524 1526
1400 1403 1410 1414 1413 1416 1420 1410 1415 1420 1423 1427 1435 1427 1430 1434 1434 1434 1437 1440 1442 1444 1446 1451 1456 1463 1470 1476 1482 1485 1491 1495 1498 1501 1503 1506 1508 1509 1512 1515 1518 1521 1524 1526
1400 1402 1405 1409 1415 1427 1397 1394 1402 1411 1414 1417 1418 1418 1423 1423 1424 1429 1432 1433 1436 1439 1442 1446 1451 1457 1463 1471 1478 1484 1488 1492 1495 1499 1501 1504 1506 1508 1510 1513 1517 1520 1523 1526
1402 1402 1408 1412 1413 1396 1395 1401 1400 1408 1409 1409 1412 1411 1416 1421 1425 1424 1424 1427 1430 1431 1435 1440 1445 1452 1459 1465 1473 1480 1484 1488 1492 1495 1498 1501 1504 1506 1509 1512 1515 1518 1521 1525
1402 1403 1403 1417 1410 1402 1383 1391 1394 1398 1407 1396 1402 1403 1410 1417 1421 1410 1416 1420 1424 1427 1431 1434 1440 1446 1454 1460 1467 1473 1479 1483 1487 1491 1495 1499 1501 1504 1507 1510 1513 1516 1520 1523
1400 1404 1406 1408 1408 1393 1385 1384 1392 1406 1398 1388 1393 1395 1406 1410 1404 1405 1410 1416 1419 1422 1424 1430 1434 1439 1443 1452 1460 1466 1472 1476 1483 1488 1491 1495 1499 1502 1506 1509 1512 1515 1518 1521
1386 1396 1398 1403 1406 1400 1383 1389 1388 1384 1382 1383 1386 1391 1396 1396 1400 1404 1407 1412 1415 1418 1419 1423 1428 1433 1439 1446 1453 1459 1465 1470 1478 1484 1487 1491 1495 1499 1503 1506 1510 1513 1516 1520
1389 1379 1380 1381 1373 1375 1376 1374 1378 1379 1379 1381 1383 1385 1388 1393 1397 1400 1403 1408 1411 1414 1416 1418 1423 1428 1433 1438 1445 1452 1456 1466 1472 1478 1483 1487 1492 1496 1500 1503 1507 1510 1513 1517
1378 1381 1379 1377 1367 1372 1375 1376 1375 1375 1376 1379 1381 1382 1385 1389 1393 1398 1401 1404 1408 1410 1412 1415 1418 1422 1426 1431 1437 1442 1452 1460 1466 1472 1478 1483 1487 1492 1496 1500 1503 1507 1510 1514
1370 1376 1373 1370 1366 1372 1371 1371 1373 1374 1376 1380 1381 1382 1384 1387 1392 1395 1398 1400 1404 1406 1408 1412 1413 1416 1421 1426 1430 1437 1445 1454 1460 1466 1472 1478 1483 1488 1491 1495 1499 1502 1507 1511
1368 1366 1366 1362 1364 1364 1363 1365 1367 1370 1372 1375 1377 1379 1382 1387 1390 1392 1397 1398 1401 1403 1405 1407 1410 1414 1417 1422 1427 1431 1437 1445 1452 1459 1465 1470 1475 1481 1486 1491 1495 1499 1504 1509